Starlink 2069

operational
NORAD ID: 47359 Int'l Des: 2021-005 Owner: SPXS Country: US Constellation: starlink
LEOCIRCULAR

Starlink 2069について

説明を読み込み中...

リアルタイム位置

3D地球を読み込み中...

次回通過

高度履歴

Altitude vs Time

uPlot chart will show altitude changes over time

軌道要素

1 47359U 21005L 25352.00002315 .00627469 17613-3 15238-2 0 9990
2 47359 53.0053 314.8749 0008189 102.9827 196.4641 15.95678189 5901
Epoch: Dec 18, 2025 • Age: 9 hours

現在のステータス

高度 292.4 km
速度 7.73 km/s
衛星直下点 -15.87°S, 75.54°E
打ち上げ日 Jan 20, 2021
運用期間 4.9 years
タイプ internet

技術仕様

分類 Payload
質量 260.00 kg
乾燥質量 248.00 kg
総質量 260.00 kg
長さ 0.20 m
直径 2.80 m
スパン 9.00 m
形状 Box + pan
製造者 SPXS
バスタイプ Starlink
フェーズステータス In Orbit
所有者/国 SPXS/US

大規模コンステレーション

Loading constellations...